Regional Weather Roundup
Issued by NWS

Home | Current Version | Previous Version | Graphics & Text | Print | Product List | Glossary On
Versions: 1 2 3 4 5 6 7 8 9 10 11 12 13 14 15 16 17 18 19 20 21 22 23 24 25 26 27 28 29 30 31 32 33 34 35 36 37 38 39 40 41 42 43 44 45 46 47 48 49 50
000
ASUS44 KMEG 071510
RWRTN
TENNESSEE HOURLY STATE WEATHER ROUNDUP
NATIONAL WEATHER SERVICE MEMPHIS TN
1000 AM CDT TUE JUL 07 2015

TNZ002-004-019-021-049-052-054-088>092-071600-
WEST TENNESSEE

CITY           SKY/WX    TMP DP  RH WIND       PRES   REMARKS
MEMPHIS INTL   MOSUNNY   84  74  71 SW9G21    30.06F HX  91
NWS MEMPHIS      N/A     83 N/A N/A MISG        N/A
JACKSON        MOSUNNY   84  73  69 SW18G24   30.05F HX  90
DYERSBURG        N/A    N/A N/A N/A MISG        N/A
PARIS          PTSUNNY   81  73  78 SW12      30.04S
LEXINGTON      MOSUNNY   81  73  78 SW13      30.05F
$$

TNZ008-025-027-028-033-062-065-066-071600-
NORTH MIDDLE TENNESSEE

CITY           SKY/WX    TMP DP  RH WIND       PRES   REMARKS
NASHVILLE      CLOUDY    82  75  79 SW9       30.08S
CLARKSVILLE    CLOUDY    80  73  79 SW10G17   30.03F
SMYRNA         PTSUNNY   84  75  74 SW12G20   30.09F HX  91
COOKEVILLE     PTSUNNY   84  75  74 SW8       30.12S HX  92
CROSSVILLE     PTSUNNY   79  70  74 SW8       30.18S
$$

TNZ061-075-076-078-094-096-097-071600-
SOUTH MIDDLE TENNESSEE

CITY           SKY/WX    TMP DP  RH WIND       PRES   REMARKS
FAYETTEVILLE   PTSUNNY   79  72  78 SW10      30.14S
TULLAHOMA      MOSUNNY   81  72  74 SW14      30.15S
WINCHESTER     CLOUDY    81  72  74 SW9       30.15S
MCMINNVILLE    PTSUNNY   81  75  83 SW9       30.13S
COLUMBIA       MOSUNNY   84  75  74 SW10      30.09R HX  92
SHELBYVILLE    PTSUNNY   82  75  78 SW10        N/A
$$

TNZ017-018-042-046-047-071600-
NORTHEAST TENNESSEE

CITY           SKY/WX    TMP DP  RH WIND       PRES   REMARKS
TRI CITIES     PTSUNNY   76  68  76 SW6       30.18S
ELIZABETHTON   PTSUNNY   77  66  69 CALM      30.19R
$$

TNZ012-013-036-069-073-074-071600-
CENTRAL EAST TENNESSEE

CITY           SKY/WX    TMP DP  RH WIND       PRES   REMARKS
KNOXVILLE      CLOUDY    80  71  74 SW12      30.15S
OAK RIDGE      CLOUDY    78  71  79 CALM      30.16S
GATLINBURG     PTSUNNY   79  68  69 W5        30.15S
MORRISTOWN       N/A     79  70  73 W8        30.18R
$$

TNZ083-085-099-071600-
SOUTHEAST TENNESSEE

CITY           SKY/WX    TMP DP  RH WIND       PRES   REMARKS
CHATTANOOGA    PTSUNNY   83  72  69 SW7       30.15F
$$

SKY/WX REPORTED AS FAIR MEANS FEW OR NO CLOUDS BELOW
12 THOUSAND FEET.




USA.gov is the U.S. government's official web portal to all federal, state and local government web resources and services.